Cambridge, United Kingdom

9:06 AM BST on July 28, 2017 (GMT +0100)
Cambridge

Weather History for EGSC - September, 2012

Change the Weather History Date:

Monday, September 24, 2012

  Actual Average Record
Temperature  
Mean Temperature 55 °F -  
Max Temperature 59 °F 58 °F 73 °F (2016)
Min Temperature 51 °F 47 °F 35 °F (2003)
Degree Days  
Heating Degree Days 10    
Growing Degree Days 5 (Base 50)    
Moisture  
Dew Point 52 °F    
Average Humidity 90    
Maximum Humidity 100    
Minimum Humidity 72    
Precipitation  
Precipitation 0.00 in - - ()
Sea Level Pressure  
Sea Level Pressure 29.13 in    
Wind  
Wind Speed 9 mph ()    
Max Wind Speed 22 mph    
Max Gust Speed 32 mph    
Visibility 5.3 miles    
Events Rain    
Averages and records for this station are not official NWS values.
T = Trace of Precipitation, MM = Missing Value Source: Averaged Metar Reports

Daily Weather History Graph

Daily Weather History Graph

Search for Another Location

Airport or City:

Trip Planner

Search our weather history database for the weather conditions in past years. The results will help you decide how hot, cold, wet, or windy it might be!

Date:

Astronomy

Sep. 24, 2012 Rise Set
Actual Time 6:49 AM BST 6:52 PM BST
Civil Twilight 6:15 AM BST 7:25 PM BST
Nautical Twilight 5:35 AM BST 8:05 PM BST
Astronomical Twilight 4:53 AM BST 8:47 PM BST
Moon 4:02 PM BST (9/24) 12:09 AM BST (9/24)
Length of Visible Light 13h 10m
Length of Day
12h 03m
Waxing Gibbous, 68% of the Moon is Illuminated
Sep 24
Waxing Gibbous
Sep 30
Full
Oct 8
Last Quarter
Oct 15
New
Oct 22
First Quarter

Hourly Weather History & Observations

Time (BST) Temp. Dew Point Humidity Pressure Visibility Wind Dir Wind Speed Gust Speed Precip Events Conditions
6:20 AM 53.6 °F 53.6 °F 100% 29.21 in - NE 4.6 mph - N/A Rain Overcast
6:50 AM 53.6 °F 53.6 °F 100% 29.18 in - NE 4.6 mph - N/A Rain Mostly Cloudy
7:20 AM 53.6 °F 53.6 °F 100% 29.18 in - ENE 4.6 mph - N/A Rain Mostly Cloudy
7:50 AM 55.4 °F 53.6 °F 94% 29.18 in 2.8 mi ENE 4.6 mph - N/A Rain Mostly Cloudy
8:20 AM 55.4 °F 53.6 °F 94% 29.15 in - ENE 4.6 mph - N/A Rain Mostly Cloudy
8:50 AM 55.4 °F 53.6 °F 94% 29.15 in - ENE 4.6 mph - N/A Rain Mostly Cloudy
9:20 AM 55.4 °F 55.4 °F 100% 29.12 in - ENE 5.8 mph - N/A Rain Mostly Cloudy
9:50 AM 57.2 °F 55.4 °F 94% 29.12 in - East 8.1 mph - N/A Rain Light Rain
10:20 AM 57.2 °F 55.4 °F 94% 29.12 in - ENE 8.1 mph - N/A Rain Light Rain
10:50 AM 59.0 °F 57.2 °F 94% 29.09 in - ENE 5.8 mph - N/A   Overcast
11:20 AM 59.0 °F 57.2 °F 94% 29.09 in - East 5.8 mph - N/A   Overcast
11:50 AM 59.0 °F 57.2 °F 94% 29.09 in - East 5.8 mph - N/A Rain Rain
12:20 PM 59.0 °F 57.2 °F 94% 29.06 in - Variable 3.5 mph - N/A Rain Rain
12:50 PM 59.0 °F 57.2 °F 94% 29.06 in 2.5 mi East 4.6 mph - N/A Rain Rain
1:20 PM 55.4 °F 53.6 °F 94% 29.09 in 1.9 mi WSW 20.7 mph 32.2 mph N/A Rain Heavy Rain
1:50 PM 53.6 °F 51.8 °F 94% 29.09 in 6.2 mi SW 20.7 mph 32.2 mph N/A Rain Light Rain
2:20 PM 53.6 °F 51.8 °F 94% 29.09 in 5.6 mi SW 21.9 mph - N/A Rain Rain
2:50 PM 51.8 °F 50.0 °F 94% 29.12 in 6.2 mi SW 20.7 mph - N/A Rain Light Rain
3:20 PM 53.6 °F 50.0 °F 88% 29.12 in 6.2 mi SW 19.6 mph - N/A   Mostly Cloudy
3:50 PM 53.6 °F 50.0 °F 88% 29.15 in 6.2 mi SW 18.4 mph - N/A   Scattered Clouds
4:20 PM 55.4 °F 50.0 °F 82% 29.12 in 6.2 mi SW 19.6 mph - N/A   Scattered Clouds
4:50 PM 55.4 °F 50.0 °F 82% 29.15 in 6.2 mi SW 19.6 mph - N/A   Scattered Clouds
5:20 PM 55.4 °F 50.0 °F 82% 29.15 in 6.2 mi SW 18.4 mph - N/A   Scattered Clouds
5:50 PM 55.4 °F 50.0 °F 82% 29.15 in 6.2 mi SW 18.4 mph - N/A   Scattered Clouds
6:20 PM 55.4 °F 48.2 °F 77% 29.15 in 6.2 mi SW 19.6 mph - N/A   Partly Cloudy
7:20 PM 55.4 °F 46.4 °F 72% 29.15 in - SW 19.6 mph - N/A   Clear
7:50 PM 53.6 °F 46.4 °F 77% 29.18 in - SSW 17.3 mph - N/A   Clear
8:20 PM 53.6 °F 46.4 °F 77% 29.18 in - SSW 17.3 mph - N/A   Clear